When you browse on this site, cookies collect data to enhance your experience and personalize the content and advertising you see.
Visit our Privacy Policy to learn more. By continuing to use the site, you agree to this use of cookies and data.
  • In Österreich
  • Länderverzeichnis
  • Für 7 Tage
  • Wassertemperatur
  • Satellitenkarten
  • Wetterkarte
  • News
  • Widgets
  • user-avatar
    Anmelden

    Stündliche Wetter Luninec

    Heute, 23 Juli, Dienstag

    Zeit Temperatur Niederschläge Wind Luftdruck Luftfeuchtigkeit
    00:00 +14°C° 0 mm 3 m/S 750 mmHg 94%
    01:00 +14°C° 0 mm 3 m/S 750 mmHg 94%
    02:00 +14°C° 0 mm 3 m/S 750 mmHg 97%
    03:00 +13°C° 0 mm 3 m/S 750 mmHg 97%
    04:00 +12°C° 0 mm 3 m/S 750 mmHg 97%
    05:00 +12°C° 0 mm 4 m/S 750 mmHg 97%
    06:00 +13°C° 0 mm 4 m/S 750 mmHg 95%
    07:00 +13°C° 0 mm 4 m/S 749 mmHg 94%
    08:00 +14°C° 0 mm 4 m/S 749 mmHg 92%
    09:00 +17°C° 0 mm 4 m/S 749 mmHg 87%
    10:00 +18°C° 0 mm 4 m/S 749 mmHg 82%
    11:00 +19°C° 0 mm 4 m/S 749 mmHg 76%
    12:00 +20°C° 0.1 mm 4 m/S 749 mmHg 75%
    13:00 +20°C° 0.1 mm 5 m/S 749 mmHg 74%
    14:00 +20°C° 0.1 mm 5 m/S 749 mmHg 73%
    15:00 +21°C° 0.2 mm 4 m/S 749 mmHg 74%
    16:00 +21°C° 0.2 mm 4 m/S 749 mmHg 74%
    17:00 +21°C° 0.2 mm 4 m/S 749 mmHg 75%
    18:00 +20°C° 0.2 mm 3 m/S 749 mmHg 80%
    19:00 +19°C° 0.2 mm 3 m/S 748 mmHg 85%
    20:00 +18°C° 0.2 mm 3 m/S 748 mmHg 89%
    21:00 +18°C° 0 mm 3 m/S 748 mmHg 91%
    22:00 +17°C° 0 mm 3 m/S 748 mmHg 92%
    23:00 +16°C° 0 mm 3 m/S 748 mmHg 94%

    Morgen, 24 Juli, Mittwoch

    Zeit Temperatur Niederschläge Wind Luftdruck Luftfeuchtigkeit
    00:00 +16°C° 0 mm 3 m/S 748 mmHg 95%
    01:00 +16°C° 0 mm 3 m/S 748 mmHg 96%
    02:00 +14°C° 0 mm 3 m/S 748 mmHg 97%
    03:00 +14°C° 0 mm 3 m/S 748 mmHg 97%
    04:00 +14°C° 0 mm 3 m/S 748 mmHg 97%
    05:00 +14°C° 0 mm 3 m/S 748 mmHg 98%
    06:00 +16°C° 0 mm 3 m/S 748 mmHg 94%
    07:00 +17°C° 0 mm 3 m/S 748 mmHg 91%
    08:00 +19°C° 0 mm 3 m/S 748 mmHg 88%
    09:00 +20°C° 0.2 mm 3 m/S 749 mmHg 80%
    10:00 +22°C° 0.2 mm 4 m/S 749 mmHg 72%
    11:00 +25°C° 0.2 mm 4 m/S 749 mmHg 65%
    12:00 +25°C° 0.2 mm 4 m/S 749 mmHg 63%
    13:00 +25°C° 0.2 mm 4 m/S 748 mmHg 62%
    14:00 +26°C° 0.2 mm 3 m/S 748 mmHg 60%
    15:00 +26°C° 0.1 mm 3 m/S 748 mmHg 61%
    16:00 +26°C° 0.1 mm 3 m/S 748 mmHg 63%
    17:00 +26°C° 0.1 mm 3 m/S 749 mmHg 64%
    18:00 +24°C° 0.1 mm 3 m/S 749 mmHg 70%
    19:00 +21°C° 0.1 mm 2 m/S 749 mmHg 75%
    20:00 +20°C° 0.1 mm 2 m/S 749 mmHg 81%
    21:00 +19°C° 0 mm 2 m/S 749 mmHg 84%
    22:00 +18°C° 0 mm 2 m/S 749 mmHg 87%
    23:00 +17°C° 0 mm 2 m/S 750 mmHg 90%

    übermorgen, 25 Juli, Donnerstag

    Zeit Temperatur Niederschläge Wind Luftdruck Luftfeuchtigkeit
    00:00 +16°C° 0 mm 2 m/S 750 mmHg 90%
    01:00 +16°C° 0 mm 2 m/S 750 mmHg 90%
    02:00 +15°C° 0 mm 2 m/S 750 mmHg 90%
    03:00 +15°C° 0 mm 2 m/S 750 mmHg 90%
    04:00 +15°C° 0 mm 2 m/S 750 mmHg 91%
    05:00 +14°C° 0 mm 2 m/S 750 mmHg 91%
    06:00 +16°C° 0 mm 2 m/S 750 mmHg 86%
    07:00 +18°C° 0 mm 2 m/S 750 mmHg 81%
    08:00 +20°C° 0 mm 2 m/S 750 mmHg 75%
    09:00 +21°C° 0.1 mm 2 m/S 750 mmHg 70%
    10:00 +24°C° 0.1 mm 3 m/S 750 mmHg 65%
    11:00 +25°C° 0.1 mm 3 m/S 750 mmHg 60%
    12:00 +25°C° 0.8 mm 3 m/S 750 mmHg 63%
    13:00 +25°C° 0.8 mm 3 m/S 749 mmHg 65%
    14:00 +25°C° 0.8 mm 3 m/S 749 mmHg 68%
    15:00 +24°C° 0.8 mm 3 m/S 749 mmHg 70%
    16:00 +24°C° 0.8 mm 3 m/S 748 mmHg 73%
    17:00 +24°C° 0.8 mm 3 m/S 748 mmHg 76%
    18:00 +21°C° 0.3 mm 3 m/S 748 mmHg 80%
    19:00 +20°C° 0.3 mm 2 m/S 748 mmHg 85%
    20:00 +19°C° 0.3 mm 2 m/S 747 mmHg 89%
    21:00 +18°C° 0 mm 2 m/S 747 mmHg 91%
    22:00 +17°C° 0 mm 2 m/S 747 mmHg 92%
    23:00 +16°C° 0 mm 2 m/S 747 mmHg 94%

    26 Juli, Freitag

    Zeit Temperatur Niederschläge Wind Luftdruck Luftfeuchtigkeit
    00:00 +16°C° 0 mm 2 m/S 747 mmHg 95%
    01:00 +15°C° 0 mm 2 m/S 747 mmHg 96%
    02:00 +15°C° 0 mm 2 m/S 747 mmHg 97%
    03:00 +15°C° 0 mm 2 m/S 747 mmHg 97%
    04:00 +14°C° 0 mm 2 m/S 747 mmHg 97%
    05:00 +14°C° 0 mm 2 m/S 747 mmHg 97%
    06:00 +14°C° 0 mm 3 m/S 747 mmHg 95%
    07:00 +16°C° 0 mm 3 m/S 747 mmHg 92%
    08:00 +17°C° 0 mm 3 m/S 747 mmHg 89%
    09:00 +18°C° 0.2 mm 4 m/S 747 mmHg 87%
    10:00 +19°C° 0.2 mm 4 m/S 747 mmHg 84%
    11:00 +20°C° 0.2 mm 5 m/S 747 mmHg 81%
    12:00 +21°C° 0.1 mm 4 m/S 747 mmHg 78%
    13:00 +21°C° 0.1 mm 4 m/S 747 mmHg 75%
    14:00 +22°C° 0.1 mm 4 m/S 746 mmHg 72%
    15:00 +22°C° 0.3 mm 4 m/S 746 mmHg 75%
    16:00 +22°C° 0.3 mm 5 m/S 746 mmHg 78%
    17:00 +21°C° 0.3 mm 5 m/S 746 mmHg 81%
    18:00 +21°C° 0.7 mm 5 m/S 746 mmHg 85%
    19:00 +20°C° 0.7 mm 4 m/S 746 mmHg 88%
    20:00 +19°C° 0.7 mm 4 m/S 746 mmHg 91%
    21:00 +18°C° 0.5 mm 4 m/S 746 mmHg 93%
    22:00 +18°C° 0.5 mm 4 m/S 746 mmHg 95%
    23:00 +17°C° 0.5 mm 4 m/S 746 mmHg 97%

    27 Juli, Samstag

    Zeit Temperatur Niederschläge Wind Luftdruck Luftfeuchtigkeit
    00:00 +17°C° 0 mm 4 m/S 746 mmHg 97%
    01:00 +17°C° 0 mm 3 m/S 746 mmHg 98%
    02:00 +16°C° 0 mm 3 m/S 746 mmHg 98%
    03:00 +16°C° 0.2 mm 3 m/S 746 mmHg 98%
    04:00 +17°C° 0.2 mm 3 m/S 746 mmHg 98%
    05:00 +17°C° 0.2 mm 3 m/S 745 mmHg 97%
    06:00 +17°C° 0.4 mm 3 m/S 745 mmHg 97%
    07:00 +17°C° 0.4 mm 2 m/S 745 mmHg 98%
    08:00 +17°C° 0.4 mm 2 m/S 745 mmHg 98%
    09:00 +18°C° 0.4 mm 2 m/S 745 mmHg 95%
    10:00 +19°C° 0.4 mm 3 m/S 745 mmHg 92%
    11:00 +21°C° 0.4 mm 3 m/S 745 mmHg 89%
    12:00 +21°C° 1 mm 4 m/S 745 mmHg 88%
    13:00 +22°C° 1 mm 4 m/S 745 mmHg 86%
    14:00 +23°C° 1 mm 5 m/S 744 mmHg 85%
    15:00 +23°C° 0.9 mm 5 m/S 744 mmHg 85%
    16:00 +23°C° 0.9 mm 5 m/S 744 mmHg 86%
    17:00 +23°C° 0.9 mm 5 m/S 744 mmHg 86%
    18:00 +22°C° 0.6 mm 5 m/S 744 mmHg 89%
    19:00 +21°C° 0.6 mm 4 m/S 744 mmHg 91%
    20:00 +20°C° 0.6 mm 4 m/S 744 mmHg 93%
    21:00 +19°C° 0 mm 3 m/S 744 mmHg 94%
    22:00 +19°C° 0 mm 3 m/S 744 mmHg 95%
    23:00 +18°C° 0 mm 3 m/S 744 mmHg 96%

    28 Juli, Sonntag

    Zeit Temperatur Niederschläge Wind Luftdruck Luftfeuchtigkeit
    00:00 +18°C° 0 mm 3 m/S 744 mmHg 97%
    01:00 +17°C° 0 mm 3 m/S 744 mmHg 97%
    02:00 +17°C° 0 mm 3 m/S 744 mmHg 97%
    03:00 +17°C° 0 mm 3 m/S 744 mmHg 97%
    04:00 +17°C° 0 mm 3 m/S 744 mmHg 97%
    05:00 +17°C° 0 mm 3 m/S 744 mmHg 97%
    06:00 +18°C° 0 mm 3 m/S 744 mmHg 95%
    07:00 +19°C° 0 mm 3 m/S 745 mmHg 92%
    08:00 +21°C° 0 mm 3 m/S 745 mmHg 90%
    09:00 +22°C° 0.4 mm 4 m/S 745 mmHg 83%
    10:00 +25°C° 0.4 mm 4 m/S 745 mmHg 76%
    11:00 +26°C° 0.4 mm 5 m/S 745 mmHg 70%
    12:00 +27°C° 0.1 mm 5 m/S 744 mmHg 67%
    13:00 +28°C° 0.1 mm 4 m/S 744 mmHg 64%
    14:00 +28°C° 0.1 mm 4 m/S 744 mmHg 62%
    15:00 +28°C° 0.3 mm 4 m/S 744 mmHg 66%
    16:00 +27°C° 0.3 mm 4 m/S 744 mmHg 70%
    17:00 +27°C° 0.3 mm 4 m/S 744 mmHg 75%
    18:00 +25°C° 0.2 mm 3 m/S 744 mmHg 79%
    19:00 +24°C° 0.2 mm 3 m/S 744 mmHg 83%
    20:00 +21°C° 0.2 mm 3 m/S 744 mmHg 87%
    21:00 +20°C° 0 mm 3 m/S 744 mmHg 89%
    22:00 +19°C° 0 mm 3 m/S 744 mmHg 91%
    23:00 +18°C° 0 mm 3 m/S 745 mmHg 93%
    Mehr zeigen